Location: Peebles
(55.6412°N, 3.1714°W)
Time: 14:53:10
(UTC+01:00)

USA 281 - Pass Details

Date: 26 September 2021
Orbit: 1078 x 1081 km, 106.0° (Epoch: 15 October)

Event Time Altitude Azimuth Distance (km) Brightness Sun altitude
Rises 22:06:10 0° 29° (NNE) 3,891 6.3 -25.2°
Reaches altitude 10° 22:08:45 10° 33° (NNE) 2,931 5.6 -25.5°
Maximum altitude 22:15:16 62° 114° (ESE) 1,210 3.1 -26.2°
Enters shadow 22:15:50 59° 138° (SE) 1,231 3.1 -26.2°
